Vorticity
21 20 8 7 6 5 10 7 4 5 6 6 4 6 9 14 15 11 9 7 6 5 6 7 8 7 6 4 5 8 10 9 8 8 9 9 8 8 8 9 10 11 11 10 9 7 5 5 4 5 6 6 7 7 8 9 8 9 9 9 8 5 6 7 5 5 5 5 7 7 7 7 6 7 6 6 7 7 9 10 7 5 5 6 7 9 9 10
21 19 11 8 8 7 6 8 11 9 3 2 3 4 5 8 11 11 11 10 10 10 7 5 6 8 8 7 8 10 10 9 9 8 8 8 9 12 13 12 12 10 8 6 5 5 5 6 6 6 6 7 8 8 9 9 7 7 6 6 5 5 6 6 5 5 6 6 6 6 6 7 7 7 8 6 5 7 8 4 -1 1 5 4 6 11 11 12
17 12 16 9 6 11 7 7 9 7 6 5 5 5 5 6 7 8 8 7 7 9 8 5 6 9 11 11 11 12 12 11 9 9 11 13 14 14 12 8 6 5 4 4 5 6 6 6 7 7 8 8 8 6 6 6 5 7 6 6 5 5 7 5 5 5 5 6 6 5 6 7 7 7 9 8 6 10 8 2 1 5 7 6 7 9 10 11
12 17 25 7 3 11 10 6 -3 -4 2 2 3 4 6 6 6 6 6 5 4 6 7 6 7 10 13 12 12 12 11 10 10 13 14 12 10 7 5 4 4 5 5 6 6 6 6 7 8 8 8 6 5 5 6 6 6 7 6 5 4 5 7 4 4 6 5 6 6 7 8 9 9 9 10 10 10 8 3 2 5 8 10 10 10 10 8 9
12 33 27 2 9 15 7 4 -0 -1 1 0 2 3 4 6 5 6 7 8 7 7 7 8 11 13 14 12 11 12 10 10 12 11 9 6 4 3 4 5 6 6 7 7 6 7 8 8 7 7 6 5 5 5 6 6 5 5 5 5 5 5 7 5 6 9 7 7 8 9 11 11 11 11 11 13 12 5 3 10 14 14 13 11 10 10 8 7
27 44 14 -6 20 33 16 5 8 10 8 8 8 6 7 8 6 8 9 9 9 10 13 14 16 16 14 12 12 11 10 11 10 6 4 4 4 4 5 7 7 7 6 7 8 8 8 6 6 6 6 6 6 6 5 4 4 5 6 6 7 7 8 8 9 10 7 8 10 10 12 12 10 11 13 12 8 8 16 20 18 17 16 14 12 12 12 11
37 35 12 -2 7 23 19 10 15 16 14 12 10 10 11 11 11 12 12 13 14 15 16 16 15 15 13 12 10 8 7 7 6 4 5 5 5 6 7 7 6 7 8 9 8 7 6 5 6 6 6 6 5 5 4 5 6 6 6 7 9 8 8 9 9 9 8 10 11 12 13 11 9 10 11 7 6 13 18 15 13 14 15 16 16 15 15 14
28 19 17 15 6 10 12 12 15 14 14 12 9 10 11 14 14 14 14 14 16 15 15 15 13 12 9 8 7 6 5 5 4 5 6 7 8 7 6 7 8 9 9 7 6 4 5 6 6 6 5 5 4 4 5 6 7 7 7 8 9 8 8 9 9 8 10 12 12 13 12 9 10 10 8 8 12 13 10 7 9 9 10 10 10 11 11 10
15 14 15 15 14 14 10 10 11 11 13 11 10 11 11 13 11 10 11 11 11 11 11 10 7 6 6 6 6 5 5 5 5 6 8 8 7 7 7 10 9 8 6 5 5 5 6 6 5 5 4 4 5 6 8 8 8 9 8 8 8 8 9 8 8 8 10 12 11 12 11 9 10 10 12 13 13 10 8 9 8 7 6 4 3 2 3 4
5 13 11 9 11 11 12 12 10 11 10 8 9 9 8 8 8 9 8 7 7 6 6 6 5 5 5 6 5 5 6 6 6 8 8 7 8 9 9 8 5 4 5 5 6 6 6 5 4 4 4 6 7 8 9 8 8 8 7 9 8 7 8 7 7 9 10 10 9 10 10 9 10 11 13 12 10 11 13 12 11 9 7 5 5 5 5 5
5 10 11 9 7 6 10 11 10 10 8 8 7 7 7 6 7 8 8 9 7 6 7 6 6 5 4 5 4 5 7 7 8 8 7 9 9 9 7 5 4 5 6 7 7 6 4 3 3 5 7 8 9 9 9 9 8 6 7 9 8 7 7 7 7 8 8 8 8 10 10 9 10 11 11 8 8 11 11 10 8 6 6 8 9 10 11 10
8 11 11 9 8 7 7 7 9 7 6 8 6 6 6 5 5 5 6 7 6 6 5 5 5 5 4 5 5 7 8 8 8 8 8 9 7 6 5 4 5 6 7 7 6 4 3 4 6 8 9 10 10 9 9 9 7 7 9 9 7 7 7 6 7 7 6 8 8 9 11 10 9 10 9 8 8 8 8 7 5 6 7 9 10 10 10 9
10 13 14 10 8 10 9 6 6 6 6 6 5 5 4 4 5 4 5 5 5 5 4 5 5 4 5 5 7 8 8 8 8 9 9 6 5 5 5 5 7 8 7 5 4 3 4 6 8 10 10 10 10 9 8 8 8 9 9 8 6 7 7 5 5 6 7 9 8 8 12 11 8 9 8 7 7 6 6 5 5 6 6 7 8 8 8 9
10 12 15 14 8 9 12 8 5 7 7 5 5 4 4 4 4 5 6 5 5 5 5 5 4 5 6 6 8 8 8 9 10 9 6 4 5 5 6 7 8 8 5 3 3 4 7 9 10 10 10 9 9 9 9 9 9 9 7 7 7 7 7 6 6 6 6 7 6 6 11 12 9 9 9 6 5 4 5 5 5 5 5 7 7 7 9 10
11 11 13 16 12 7 9 11 8 7 7 6 6 5 5 5 4 5 5 5 6 6 6 6 7 8 7 8 9 9 10 10 9 6 4 4 5 6 7 8 7 6 4 3 4 7 9 10 10 10 10 9 9 9 9 9 8 8 7 7 7 7 7 6 6 6 6 6 6 5 8 11 10 10 8 3 2 3 3 4 4 4 5 7 7 7 8 8
11 13 13 14 14 9 9 12 10 8 7 7 7 6 6 6 6 6 6 7 7 6 7 7 9 9 8 9 9 10 10 7 6 4 4 5 6 8 8 7 6 3 2 3 6 9 10 10 10 9 8 9 9 9 9 8 7 7 6 7 7 7 7 6 5 4 6 5 5 5 4 9 9 6 4 0 0 3 2 3 4 4 5 6 7 7 6 5
7 12 15 13 11 10 11 12 10 8 8 7 7 7 8 9 8 8 9 9 8 8 9 8 9 8 8 10 9 9 6 3 4 4 5 7 7 8 7 6 5 2 3 5 8 9 10 11 9 8 8 8 9 8 8 7 7 7 6 5 5 6 6 6 5 3 5 4 4 5 3 6 6 1 2 0 -0 3 2 3 3 2 3 5 7 6 4 4
7 8 13 14 10 9 9 10 9 7 7 7 7 7 8 10 9 9 10 10 10 10 9 9 9 8 9 12 11 8 4 3 4 5 7 8 8 8 7 6 3 2 4 6 9 9 10 11 8 8 9 8 8 8 7 6 6 7 5 4 4 5 6 6 4 2 3 3 4 4 2 5 4 -0 2 1 1 3 1 1 2 2 3 4 7 7 3 2
10 7 9 14 13 10 9 8 8 7 7 7 7 7 8 9 9 10 10 10 10 10 10 10 9 9 11 11 8 5 4 4 4 6 8 7 7 8 7 5 2 4 5 6 8 8 9 11 8 7 8 7 7 6 6 5 5 5 4 4 4 5 6 5 3 3 3 2 3 4 3 4 2 -1 3 2 1 2 1 1 2 2 3 3 6 7 3 2
9 8 7 12 13 12 11 9 9 8 8 8 7 7 8 9 10 10 10 10 10 10 10 9 9 11 12 9 6 4 3 3 5 8 7 7 8 8 7 4 3 4 5 6 7 7 9 9 5 5 7 6 6 5 5 5 5 4 3 3 3 5 6 3 2 3 2 2 3 3 3 4 1 0 3 2 1 2 2 4 3 1 1 2 4 5 3 1
8 7 6 10 11 11 11 9 9 9 9 9 8 9 9 10 10 10 10 9 10 9 8 8 11 12 10 5 3 3 2 3 7 7 6 8 8 7 5 3 4 5 5 6 5 6 8 6 4 4 5 5 5 4 4 5 5 4 3 3 4 6 6 3 2 2 2 3 3 2 3 2 -0 2 3 1 2 1 2 4 5 3 2 2 2 2 2 1
6 7 6 10 10 10 10 9 9 10 10 10 9 9 9 10 10 9 8 8 9 9 10 12 12 8 4 2 2 2 3 4 7 7 6 7 6 7 6 4 5 5 6 5 4 5 6 5 4 5 5 3 3 4 4 4 4 4 3 3 4 5 4 3 2 3 2 3 3 3 4 0 -1 3 2 1 2 2 2 4 4 4 3 2 1 1 3 4
5 6 7 10 10 10 10 9 9 10 10 9 9 10 10 10 9 8 8 8 9 10 13 13 9 4 1 2 3 2 4 6 7 6 5 7 7 8 6 5 5 5 6 4 4 6 6 6 5 5 4 2 3 4 4 3 3 3 2 2 4 3 3 2 2 3 2 3 3 3 3 0 0 3 2 2 2 2 3 2 2 3 3 5 5 6 8 7
4 5 7 9 10 12 11 10 10 9 9 9 10 10 10 8 7 7 8 9 10 10 11 10 6 3 2 3 3 3 6 7 5 5 6 7 7 6 6 5 6 6 5 5 6 6 6 5 4 4 4 3 4 5 4 2 2 3 2 3 3 2 3 2 3 3 2 3 2 3 3 1 2 3 2 3 2 2 3 3 4 5 7 10 10 10 10 8
5 5 7 7 9 11 10 10 9 9 10 10 10 9 8 7 7 8 9 10 11 8 7 7 6 5 4 3 3 5 7 5 4 5 5 5 5 6 6 5 5 6 5 5 5 5 5 4 3 4 5 4 4 3 3 2 2 3 3 4 3 3 3 3 3 3 3 4 2 3 4 2 4 5 3 3 2 3 4 5 8 9 11 13 13 15 17 19
5 5 7 7 8 9 10 10 9 7 8 9 9 8 8 8 7 9 9 8 9 8 6 6 6 5 5 6 6 6 5 4 5 5 4 4 4 5 5 4 4 6 6 5 5 5 5 4 4 6 5 5 4 3 4 4 4 5 4 5 4 4 4 4 5 5 4 4 2 4 5 3 5 5 3 4 4 4 5 6 8 8 9 8 10 14 17 22
4 5 7 7 8 8 9 10 8 7 7 8 9 9 9 9 8 9 10 9 9 10 10 8 7 5 6 8 6 4 4 4 4 4 4 4 4 4 4 4 5 6 6 5 6 6 6 7 7 7 6 6 6 5 6 5 5 6 5 5 5 6 6 6 7 6 6 6 3 7 7 5 6 5 3 4 4 4 4 4 3 3 5 7 9 10 11 13
4 6 8 8 8 7 8 8 8 8 7 8 9 9 11 10 10 10 10 9 8 8 9 9 8 7 6 5 4 4 5 4 3 4 4 4 5 5 5 6 6 7 7 6 7 7 7 9 8 7 7 7 7 7 7 7 7 7 6 7 7 7 8 8 8 7 8 5 3 7 7 5 7 6 5 5 6 8 8 9 8 7 6 7 8 8 9 8
5 7 8 8 9 7 8 9 8 8 6 7 8 9 10 10 10 10 8 8 7 7 8 7 7 7 7 6 6 6 5 4 4 3 4 5 5 6 6 7 6 7 7 6 8 7 7 9 7 7 8 7 8 8 8 8 8 8 8 9 8 8 8 8 7 8 8 6 6 10 9 9 11 9 10 13 14 14 14 15 13 10 8 6 8 7 8 10
5 7 7 8 10 9 10 9 7 8 6 7 8 8 9 8 8 8 8 8 8 8 9 8 8 8 8 8 7 6 4 4 5 4 5 6 6 7 7 7 6 7 7 6 8 7 7 8 7 7 7 7 8 8 8 8 7 8 8 7 6 6 8 7 7 7 9 11 14 16 13 14 15 12 11 13 14 14 13 13 12 12 13 11 11 10 7 8
5 7 6 7 10 11 11 8 7 7 6 7 7 7 9 8 8 8 8 8 7 8 9 9 10 9 8 8 6 6 5 5 6 6 7 7 7 8 7 7 7 7 6 6 7 6 6 6 6 8 7 7 8 7 6 5 6 8 8 9 11 13 15 15 15 15 14 14 15 15 13 12 12 11 12 13 16 16 14 13 12 12 12 11 9 8 7 6
6 7 6 6 9 11 11 8 6 7 6 7 7 7 8 7 7 8 7 7 8 8 9 9 9 8 7 7 6 6 6 7 7 7 7 7 7 7 6 6 6 6 6 5 5 5 6 6 6 7 7 8 9 7 7 8 10 10 11 14 15 16 16 13 13 14 13 12 10 9 10 9 8 8 12 15 14 12 11 11 11 9 8 7 7 7 7 7
6 7 7 6 9 13 11 9 7 6 6 7 8 8 7 6 7 7 7 7 8 8 8 8 8 7 7 7 7 7 7 7 7 7 7 7 6 6 6 6 6 6 5 4 5 6 6 6 7 9 11 11 10 9 13 15 15 14 14 13 11 13 15 12 12 11 8 8 7 7 11 11 11 10 10 9 7 7 9 10 10 9 9 8 9 9 9 9
6 8 8 6 10 12 10 8 6 6 7 8 8 7 6 6 6 6 6 7 8 8 8 8 7 7 7 7 7 7 7 7 6 6 6 6 6 6 6 6 5 6 5 6 7 8 8 8 9 13 14 11 9 10 11 10 10 9 10 10 9 11 10 10 12 12 10 10 7 9 10 9 9 10 10 9 7 6 8 10 11 11 11 10 10 10 11 11
7 9 8 8 11 10 8 7 6 7 8 7 7 6 6 6 5 6 8 8 8 8 7 7 6 7 7 7 7 6 6 6 5 6 6 6 7 6 6 6 6 7 7 8 9 9 9 9 10 13 12 8 8 10 9 9 11 11 10 10 10 9 8 7 8 9 12 13 9 10 11 9 10 12 14 14 12 10 10 12 12 11 10 10 11 11 10 11
9 9 7 9 10 9 7 7 7 7 7 7 6 6 6 7 7 8 8 7 7 7 6 7 7 7 6 5 5 5 5 6 6 6 6 6 6 6 7 8 8 9 10 10 11 11 10 8 8 9 8 7 8 9 10 11 11 12 11 10 9 9 9 9 8 7 9 9 9 15 16 13 15 16 13 10 11 13 12 10 8 9 11 12 12 13 12 12
10 9 9 10 9 8 7 7 7 7 7 6 6 7 7 8 8 7 7 7 7 7 6 6 6 5 5 5 6 5 5 5 6 7 7 7 7 8 9 10 10 11 11 12 11 11 9 7 7 8 8 10 11 11 12 10 7 7 9 10 10 10 10 10 12 15 14 8 7 11 10 8 10 9 6 6 10 10 7 7 9 10 11 10 8 9 9 9
10 9 9 9 8 8 7 7 8 7 7 7 7 8 7 7 7 7 7 7 6 6 5 5 5 6 6 6 6 6 6 7 8 9 9 8 9 10 11 11 11 11 10 9 8 8 10 10 10 11 10 10 11 10 9 8 6 6 6 8 9 10 10 10 13 16 15 11 10 11 9 7 7 4 3 6 7 6 5 8 9 8 7 6 5 6 6 6
11 10 9 8 9 8 7 7 7 7 7 7 7 7 6 7 7 7 6 6 5 5 5 5 6 6 6 6 7 8 9 9 9 9 9 10 12 12 11 10 10 9 7 8 10 12 13 13 13 13 10 8 9 7 6 9 10 10 10 11 11 9 8 8 8 6 5 6 9 10 9 9 7 3 4 6 5 6 8 8 7 7 6 5 5 6 7 8
11 9 9 9 8 7 7 7 7 7 7 6 7 7 6 7 6 5 5 5 5 6 5 6 6 7 8 8 9 8 8 9 10 10 11 12 11 9 8 7 7 8 10 12 14 13 12 11 10 11 8 6 7 7 8 10 11 12 13 13 12 9 7 8 8 6 5 4 5 6 6 5 4 4 6 6 6 7 8 8 8 8 6 5 8 11 12 13
9 8 9 8 7 8 8 7 7 6 7 7 7 6 6 6 5 5 5 5 6 6 7 8 8 8 9 8 7 8 10 12 11 11 10 8 7 7 7 8 9 11 13 13 12 9 8 6 6 7 6 4 5 7 10 10 9 9 9 8 9 10 10 10 8 6 3 1 4 7 5 4 5 7 7 7 9 11 11 10 9 8 9 11 14 16 15 14
8 10 10 8 8 8 7 7 7 7 7 7 6 6 5 5 4 5 6 6 8 8 8 8 7 7 8 8 10 11 12 11 9 8 6 6 7 8 9 11 12 13 12 10 8 7 6 5 4 3 3 4 5 6 7 5 7 9 7 7 7 7 8 7 5 7 3 1 6 7 5 7 8 8 10 12 14 13 11 11 11 10 13 15 15 14 12 10
9 11 10 9 8 8 7 7 7 7 7 6 5 5 5 5 6 7 8 9 8 7 7 7 7 9 10 11 11 10 8 7 6 6 6 7 9 9 11 12 12 10 9 8 6 6 5 5 4 3 3 5 7 9 9 7 10 13 10 9 7 3 2 0 1 6 4 4 9 10 11 11 6 7 14 17 14 12 11 13 14 13 13 11 10 10 10 10
10 10 9 8 7 7 7 6 7 6 5 5 5 5 6 7 8 8 8 7 6 6 7 9 11 11 11 9 8 7 6 6 6 6 7 9 10 11 12 11 9 8 8 6 5 4 3 4 7 8 10 11 12 14 15 13 14 12 7 7 5 2 1 -1 1 5 6 9 15 16 15 9 6 14 21 17 13 13 12 12 10 10 10 10 10 10 10 10
9 8 7 6 6 7 6 6 6 5 5 6 6 7 8 8 7 7 6 6 7 9 10 11 11 9 8 7 7 6 6 6 7 8 9 12 12 12 11 10 9 7 6 4 3 3 4 6 9 11 14 16 15 14 13 10 10 8 5 5 5 4 2 2 6 11 12 14 16 17 14 6 8 18 16 10 11 10 9 9 9 11 13 13 12 12 12 12
7 6 6 6 6 6 5 5 6 6 7 8 8 8 7 6 6 6 7 9 11 11 10 9 8 7 7 7 6 6 6 7 9 11 12 13 12 10 9 9 7 5 3 3 3 5 6 8 10 11 12 13 11 9 7 5 5 4 2 3 4 3 3 7 13 16 17 16 13 16 14 6 10 18 15 14 16 12 11 14 13 13 12 10 11 11 13 15
6 6 6 6 6 6 6 7 7 8 8 7 7 7 6 6 8 9 11 11 10 9 7 7 7 7 6 6 6 7 8 10 13 14 13 12 11 10 9 7 5 4 4 5 6 7 8 10 11 10 11 11 8 7 6 3 2 2 2 3 4 3 7 15 18 16 17 15 11 15 16 11 16 22 18 16 14 11 11 11 9 10 10 11 13 13 15 18
7 6 5 6 7 7 8 8 8 8 7 6 6 6 7 9 11 11 10 9 7 6 7 7 7 6 6 6 8 10 11 13 14 13 12 11 10 9 6 5 5 6 6 6 8 9 9 11 10 8 9 10 7 6 5 2 1 2 3 3 4 8 13 17 15 13 17 16 15 20 21 17 20 18 10 8 9 9 10 10 12 14 16 19 21 21 22 23
7 6 7 9 9 8 8 7 7 7 6 6 8 9 10 11 10 9 7 7 7 7 6 6 6 6 7 9 10 12 13 14 13 11 11 9 7 6 5 6 7 6 6 8 10 10 9 10 9 7 8 9 7 5 3 3 3 3 3 4 8 13 15 13 15 20 23 21 20 19 13 8 11 9 5 8 11 12 14 16 18 21 23 25 24 23 23 22
9 9 9 9 7 7 7 6 6 6 7 9 10 10 10 9 8 7 7 7 7 6 6 6 6 8 9 11 12 13 13 12 11 10 8 7 6 6 6 6 5 6 8 9 10 10 9 10 9 8 8 8 7 6 3 4 3 2 5 9 13 17 16 18 26 29 24 17 11 7 3 5 9 8 8 11 15 16 17 18 21 24 24 23 21 19 18 17
10 8 8 7 7 7 6 6 7 8 10 11 10 9 8 7 7 7 7 7 6 6 7 7 8 10 12 13 13 13 12 11 10 9 7 7 8 6 5 5 6 8 9 9 9 9 9 9 8 8 8 8 6 5 4 3 3 6 12 15 19 22 25 29 29 21 11 7 5 5 8 10 12 12 13 16 16 17 17 19 23 23 18 16 16 16 14 13
7 7 7 7 7 6 6 8 9 10 10 9 9 8 7 7 8 7 7 7 6 7 8 9 11 12 13 13 13 11 10 10 9 8 8 8 6 5 6 7 9 9 8 8 8 8 9 9 8 8 7 6 5 4 2 3 8 14 18 20 26 30 29 24 14 5 6 8 7 8 11 13 16 18 17 17 17 18 19 20 21 18 15 14 14 13 14 13
Height
5747 5747 5749 5752 5753 5753 5755 5755 5757 5758 5759 5760 5761 5762 5763 5764 5765 5766 5767 5768 5769 5770 5770 5771 5771 5772 5772 5773 5773 5773 5773 5773 5773 5774 5774 5774 5774 5773 5773 5773 5773 5773 5772 5772 5772 5772 5772 5771 5771 5770 5770 5769 5769 5768 5767 5766 5765 5765 5764 5763 5762 5760 5759 5759 5757 5755 5754 5753 5752 5750 5750 5749 5747 5746 5746 5745 5744 5742 5742 5740 5738 5736 5736 5734 5733 5734 5735 5735
5745 5746 5747 5749 5751 5752 5753 5754 5755 5757 5758 5759 5759 5760 5761 5762 5764 5765 5766 5766 5767 5768 5768 5769 5769 5770 5770 5771 5771 5771 5772 5772 5772 5772 5772 5772 5772 5771 5771 5771 5771 5771 5771 5771 5771 5770 5770 5769 5769 5768 5768 5767 5766 5766 5765 5764 5763 5762 5762 5761 5759 5758 5757 5756 5754 5753 5751 5751 5750 5748 5747 5747 5746 5744 5743 5743 5742 5740 5739 5736 5733 5732 5732 5730 5731 5733 5733 5732
5743 5744 5746 5747 5749 5750 5751 5752 5754 5754 5756 5757 5758 5759 5760 5761 5762 5763 5764 5765 5766 5766 5767 5767 5768 5768 5769 5769 5769 5770 5770 5770 5770 5770 5770 5770 5770 5770 5770 5769 5769 5770 5769 5769 5769 5768 5768 5767 5767 5766 5765 5765 5764 5763 5763 5762 5761 5760 5759 5758 5757 5756 5755 5753 5751 5750 5749 5748 5747 5745 5744 5744 5743 5742 5740 5739 5739 5738 5735 5731 5729 5729 5730 5729 5729 5730 5730 5729
5742 5743 5744 5745 5747 5748 5749 5751 5752 5753 5755 5756 5757 5758 5759 5760 5761 5762 5763 5763 5764 5764 5765 5765 5766 5766 5767 5767 5768 5768 5768 5769 5769 5768 5768 5769 5769 5769 5768 5768 5768 5768 5768 5767 5767 5766 5766 5765 5765 5764 5763 5763 5762 5761 5760 5760 5759 5758 5757 5755 5754 5753 5753 5750 5748 5748 5746 5745 5744 5742 5742 5741 5740 5739 5738 5736 5736 5735 5730 5727 5726 5728 5728 5727 5726 5725 5726 5725
5741 5741 5742 5743 5745 5746 5747 5749 5750 5752 5753 5755 5756 5757 5758 5759 5760 5760 5761 5761 5762 5763 5763 5764 5764 5765 5765 5766 5766 5766 5767 5767 5767 5767 5767 5767 5768 5767 5767 5767 5767 5767 5766 5766 5765 5764 5764 5763 5763 5762 5762 5761 5760 5759 5758 5757 5756 5756 5755 5753 5752 5750 5750 5748 5746 5745 5743 5742 5741 5740 5740 5739 5737 5736 5734 5733 5731 5729 5726 5725 5726 5726 5725 5724 5722 5720 5721 5721
5739 5739 5740 5742 5744 5744 5745 5748 5749 5751 5752 5753 5755 5756 5757 5757 5758 5759 5759 5760 5760 5761 5762 5762 5763 5763 5764 5764 5764 5765 5765 5765 5765 5766 5766 5766 5766 5766 5766 5765 5765 5765 5764 5764 5763 5762 5762 5762 5761 5760 5759 5758 5757 5756 5755 5755 5754 5753 5752 5751 5749 5748 5747 5745 5744 5742 5740 5739 5739 5738 5737 5736 5734 5732 5731 5729 5726 5725 5725 5725 5723 5723 5721 5720 5719 5717 5716 5716
5737 5737 5738 5741 5742 5743 5744 5746 5748 5750 5751 5752 5753 5754 5755 5756 5757 5757 5758 5758 5759 5760 5760 5761 5761 5762 5762 5762 5763 5764 5764 5764 5764 5765 5765 5765 5765 5765 5764 5764 5763 5763 5762 5762 5761 5761 5761 5760 5759 5758 5757 5756 5755 5754 5753 5753 5752 5751 5749 5748 5747 5745 5744 5742 5741 5740 5738 5737 5736 5735 5735 5732 5730 5730 5728 5725 5723 5724 5724 5722 5720 5719 5718 5717 5716 5714 5713 5712
5736 5736 5737 5740 5741 5742 5744 5745 5747 5748 5750 5751 5752 5753 5754 5755 5755 5756 5757 5757 5758 5759 5759 5760 5760 5761 5761 5761 5762 5763 5763 5763 5763 5763 5763 5763 5763 5763 5762 5762 5762 5761 5761 5761 5760 5760 5759 5758 5757 5756 5755 5755 5753 5752 5751 5750 5749 5748 5746 5745 5744 5742 5741 5740 5738 5737 5736 5735 5734 5733 5732 5729 5727 5726 5725 5723 5722 5722 5721 5719 5717 5716 5715 5714 5712 5711 5709 5708
5736 5736 5737 5739 5741 5742 5743 5744 5746 5747 5749 5750 5751 5752 5753 5754 5754 5755 5756 5756 5757 5758 5758 5759 5759 5760 5760 5761 5761 5762 5762 5762 5762 5762 5762 5762 5762 5761 5761 5761 5760 5760 5760 5759 5759 5758 5757 5756 5756 5755 5754 5753 5751 5750 5749 5747 5746 5745 5744 5743 5742 5740 5738 5737 5735 5734 5734 5733 5731 5730 5729 5726 5724 5723 5722 5721 5721 5719 5717 5716 5715 5713 5712 5710 5708 5707 5705 5704
5736 5736 5737 5739 5740 5742 5743 5744 5745 5746 5748 5749 5750 5751 5752 5753 5753 5754 5755 5755 5756 5757 5758 5758 5759 5759 5759 5760 5760 5761 5761 5761 5761 5761 5761 5761 5760 5760 5760 5759 5759 5759 5758 5758 5757 5756 5756 5755 5754 5753 5751 5750 5749 5747 5746 5745 5743 5742 5742 5741 5739 5737 5736 5734 5733 5732 5731 5730 5729 5728 5726 5723 5722 5721 5720 5719 5717 5716 5715 5713 5712 5710 5708 5706 5704 5703 5702 5701
5735 5736 5737 5739 5740 5741 5742 5743 5744 5746 5747 5748 5749 5750 5751 5752 5753 5753 5754 5755 5756 5757 5757 5757 5758 5758 5759 5759 5759 5759 5759 5759 5759 5759 5759 5759 5759 5759 5758 5758 5758 5758 5757 5756 5756 5755 5754 5753 5752 5750 5749 5748 5746 5745 5744 5742 5741 5740 5739 5738 5736 5735 5734 5732 5731 5730 5729 5728 5726 5725 5724 5721 5719 5719 5718 5716 5715 5714 5712 5710 5708 5706 5704 5702 5700 5699 5698 5698
5735 5736 5737 5738 5739 5741 5742 5743 5744 5745 5747 5748 5749 5750 5750 5751 5752 5753 5754 5755 5755 5756 5756 5756 5757 5757 5758 5758 5758 5758 5758 5758 5758 5758 5758 5758 5758 5758 5757 5757 5757 5756 5756 5755 5754 5753 5752 5751 5749 5748 5746 5745 5744 5742 5741 5740 5738 5737 5736 5736 5734 5732 5731 5729 5728 5727 5726 5725 5724 5723 5722 5719 5717 5716 5714 5713 5712 5711 5709 5707 5705 5703 5701 5700 5698 5697 5696 5696
5735 5736 5737 5738 5739 5740 5742 5742 5743 5745 5746 5747 5748 5749 5750 5751 5752 5752 5753 5754 5754 5755 5755 5756 5756 5756 5757 5757 5757 5757 5757 5757 5757 5757 5756 5756 5756 5756 5756 5756 5755 5755 5754 5753 5752 5751 5749 5748 5746 5745 5743 5742 5741 5739 5738 5737 5736 5735 5734 5733 5732 5730 5729 5727 5725 5725 5724 5723 5721 5720 5720 5717 5715 5714 5712 5710 5709 5708 5706 5704 5702 5700 5698 5698 5697 5695 5695 5694
5736 5736 5737 5738 5739 5740 5741 5742 5743 5745 5746 5747 5747 5748 5749 5750 5751 5752 5752 5753 5753 5754 5754 5755 5755 5755 5756 5756 5756 5756 5756 5756 5756 5756 5755 5755 5755 5755 5754 5754 5753 5753 5752 5751 5749 5748 5747 5745 5744 5742 5740 5739 5738 5737 5735 5734 5733 5732 5731 5730 5729 5728 5727 5725 5723 5722 5721 5720 5718 5718 5718 5716 5712 5710 5709 5706 5705 5704 5703 5701 5699 5697 5696 5695 5694 5693 5692 5691
5736 5736 5737 5738 5739 5740 5741 5742 5743 5745 5745 5746 5747 5747 5748 5749 5750 5751 5751 5752 5752 5753 5753 5753 5754 5754 5754 5754 5754 5754 5755 5755 5755 5755 5754 5754 5754 5753 5753 5752 5751 5750 5749 5748 5747 5745 5744 5742 5741 5739 5738 5736 5735 5734 5733 5731 5730 5729 5728 5728 5727 5725 5724 5723 5721 5719 5718 5718 5716 5715 5716 5716 5712 5708 5706 5703 5701 5700 5699 5698 5696 5695 5694 5692 5690 5690 5689 5687
5736 5737 5737 5738 5739 5740 5741 5743 5744 5744 5745 5745 5746 5747 5748 5748 5749 5750 5750 5751 5751 5752 5752 5752 5753 5753 5753 5753 5753 5753 5753 5754 5754 5753 5753 5752 5752 5752 5751 5750 5749 5748 5747 5746 5745 5743 5741 5740 5738 5736 5735 5733 5732 5731 5730 5729 5728 5727 5726 5725 5724 5723 5721 5720 5718 5716 5715 5715 5714 5712 5713 5714 5712 5707 5702 5701 5699 5697 5695 5694 5694 5693 5692 5689 5687 5686 5685 5684
5737 5737 5738 5739 5739 5741 5742 5743 5744 5744 5744 5745 5745 5746 5747 5747 5748 5749 5749 5750 5750 5750 5751 5751 5751 5752 5752 5752 5752 5752 5752 5752 5752 5752 5752 5751 5751 5750 5749 5748 5747 5746 5745 5744 5742 5741 5739 5737 5735 5734 5733 5731 5730 5729 5728 5727 5725 5724 5723 5722 5721 5720 5719 5717 5715 5713 5712 5711 5710 5709 5709 5710 5710 5704 5698 5699 5697 5695 5692 5690 5690 5690 5688 5687 5684 5683 5681 5680
5738 5738 5739 5739 5740 5741 5742 5743 5743 5743 5743 5744 5744 5745 5746 5747 5747 5748 5748 5749 5749 5749 5750 5750 5750 5750 5751 5751 5751 5751 5751 5751 5751 5750 5750 5749 5749 5748 5747 5746 5745 5744 5743 5741 5740 5738 5737 5735 5733 5731 5730 5729 5728 5727 5726 5725 5723 5721 5720 5719 5719 5717 5717 5714 5711 5710 5710 5708 5707 5706 5705 5706 5707 5700 5694 5696 5695 5692 5691 5688 5686 5685 5684 5683 5681 5680 5677 5676
5738 5739 5739 5740 5741 5741 5742 5742 5742 5742 5743 5743 5744 5744 5745 5746 5747 5747 5748 5748 5748 5748 5749 5749 5749 5750 5750 5750 5750 5750 5750 5749 5749 5749 5748 5748 5747 5746 5745 5744 5743 5742 5740 5739 5738 5736 5735 5733 5731 5729 5728 5727 5726 5725 5723 5722 5720 5719 5717 5716 5715 5714 5715 5712 5707 5706 5706 5704 5703 5703 5700 5701 5702 5695 5690 5693 5692 5689 5688 5686 5684 5681 5679 5678 5677 5676 5674 5672
5738 5739 5739 5740 5740 5740 5741 5741 5742 5742 5742 5743 5744 5744 5745 5746 5746 5747 5747 5747 5747 5748 5748 5748 5748 5748 5749 5749 5749 5748 5748 5748 5748 5747 5747 5746 5745 5744 5743 5742 5741 5740 5738 5737 5736 5734 5733 5731 5728 5727 5726 5724 5723 5722 5721 5719 5717 5716 5714 5712 5712 5711 5711 5709 5704 5703 5703 5700 5699 5698 5696 5696 5696 5690 5686 5688 5688 5686 5685 5683 5681 5678 5675 5674 5672 5671 5670 5668
5738 5739 5739 5740 5740 5740 5740 5741 5742 5742 5742 5743 5744 5744 5745 5745 5745 5746 5746 5746 5746 5747 5747 5747 5747 5747 5747 5747 5747 5747 5747 5747 5746 5746 5745 5744 5743 5742 5741 5740 5739 5738 5736 5735 5734 5733 5731 5729 5726 5724 5723 5722 5721 5719 5718 5717 5714 5712 5711 5709 5709 5707 5707 5705 5701 5700 5699 5696 5694 5693 5691 5691 5690 5683 5682 5683 5682 5681 5679 5678 5677 5674 5671 5670 5668 5666 5664 5663
5739 5740 5740 5740 5740 5740 5741 5741 5742 5742 5743 5743 5744 5744 5744 5744 5744 5744 5745 5745 5746 5746 5745 5746 5746 5746 5746 5746 5746 5746 5745 5745 5745 5744 5744 5742 5741 5740 5739 5738 5737 5736 5734 5733 5732 5731 5729 5727 5724 5721 5720 5719 5718 5716 5715 5713 5711 5709 5708 5706 5705 5703 5701 5699 5697 5696 5694 5692 5690 5688 5685 5686 5682 5677 5677 5677 5676 5674 5673 5673 5671 5669 5667 5665 5664 5661 5659 5657
5740 5741 5741 5740 5740 5741 5741 5741 5742 5742 5743 5743 5743 5744 5744 5744 5744 5744 5744 5744 5744 5744 5744 5744 5745 5745 5745 5745 5745 5744 5744 5744 5743 5743 5742 5741 5740 5738 5737 5736 5735 5733 5732 5730 5729 5728 5727 5725 5722 5719 5718 5716 5715 5713 5711 5710 5708 5706 5704 5702 5701 5698 5695 5693 5692 5691 5689 5687 5686 5682 5680 5680 5674 5671 5671 5670 5668 5667 5666 5666 5664 5662 5660 5658 5657 5655 5653 5651
5741 5741 5741 5740 5741 5741 5741 5741 5742 5742 5742 5742 5743 5743 5743 5743 5743 5743 5743 5744 5744 5743 5744 5744 5744 5744 5744 5744 5743 5743 5743 5743 5742 5741 5740 5739 5738 5736 5735 5734 5733 5731 5729 5728 5726 5725 5723 5721 5719 5717 5715 5713 5711 5710 5708 5706 5704 5702 5700 5699 5696 5693 5690 5688 5686 5684 5683 5681 5679 5677 5674 5672 5668 5665 5665 5661 5660 5659 5656 5655 5654 5652 5652 5650 5649 5647 5646 5645
5742 5741 5741 5741 5741 5741 5741 5741 5741 5742 5742 5742 5742 5743 5743 5743 5742 5742 5742 5743 5743 5743 5743 5743 5743 5743 5743 5742 5742 5742 5741 5741 5740 5739 5738 5737 5736 5734 5733 5732 5730 5729 5727 5725 5723 5722 5720 5718 5715 5714 5712 5710 5708 5706 5704 5701 5700 5698 5696 5694 5691 5688 5686 5684 5680 5678 5677 5674 5672 5671 5666 5664 5661 5658 5658 5656 5653 5650 5646 5645 5643 5642 5641 5640 5638 5637 5636 5635
5741 5741 5741 5741 5741 5740 5741 5741 5741 5741 5742 5742 5743 5743 5743 5742 5742 5742 5742 5742 5742 5742 5742 5742 5742 5741 5741 5741 5741 5740 5740 5739 5738 5737 5736 5735 5733 5732 5731 5729 5727 5726 5724 5722 5720 5719 5717 5714 5712 5711 5708 5706 5704 5701 5700 5697 5696 5693 5691 5689 5686 5683 5680 5678 5675 5672 5671 5669 5668 5666 5659 5656 5656 5650 5650 5651 5648 5643 5639 5636 5635 5633 5631 5630 5628 5627 5626 5625
5741 5741 5741 5740 5740 5740 5740 5741 5741 5742 5742 5742 5743 5743 5742 5742 5741 5741 5741 5741 5741 5741 5741 5741 5740 5740 5740 5740 5739 5738 5738 5737 5736 5735 5733 5732 5731 5730 5728 5727 5725 5723 5721 5719 5717 5716 5714 5711 5709 5707 5704 5702 5699 5697 5695 5693 5691 5688 5686 5683 5680 5678 5675 5673 5670 5667 5665 5663 5663 5662 5654 5650 5650 5645 5643 5645 5642 5639 5635 5631 5628 5625 5623 5621 5619 5618 5616 5615
5741 5741 5741 5740 5740 5740 5740 5741 5741 5742 5742 5742 5742 5742 5742 5741 5740 5740 5740 5740 5740 5740 5740 5739 5739 5738 5738 5738 5737 5737 5736 5735 5734 5733 5731 5730 5729 5727 5725 5724 5722 5720 5718 5716 5714 5712 5710 5707 5705 5702 5700 5698 5695 5693 5690 5688 5685 5682 5680 5677 5674 5672 5670 5667 5664 5662 5659 5655 5656 5657 5650 5643 5642 5638 5637 5639 5637 5633 5629 5626 5622 5618 5615 5613 5611 5609 5607 5605
5741 5741 5741 5740 5740 5740 5740 5741 5741 5742 5742 5742 5742 5741 5741 5740 5740 5739 5739 5739 5739 5738 5738 5738 5737 5737 5736 5736 5736 5735 5734 5733 5731 5730 5729 5727 5726 5724 5722 5720 5719 5717 5715 5712 5710 5708 5706 5703 5700 5698 5695 5693 5691 5688 5685 5682 5679 5677 5674 5671 5669 5666 5664 5661 5658 5655 5652 5648 5649 5650 5644 5637 5634 5630 5629 5631 5629 5626 5622 5618 5615 5611 5608 5605 5602 5600 5597 5595
5741 5741 5740 5740 5740 5740 5740 5740 5741 5742 5742 5742 5741 5740 5740 5739 5739 5739 5739 5738 5738 5737 5736 5736 5736 5735 5735 5734 5733 5733 5732 5730 5729 5728 5726 5725 5723 5721 5719 5717 5716 5714 5711 5709 5706 5704 5701 5698 5696 5693 5690 5688 5686 5683 5680 5677 5673 5671 5667 5664 5662 5660 5657 5655 5653 5649 5645 5642 5641 5641 5638 5631 5626 5623 5623 5623 5621 5619 5615 5611 5607 5603 5600 5597 5594 5591 5588 5585
5741 5741 5740 5740 5740 5740 5740 5741 5741 5741 5741 5741 5740 5739 5739 5739 5739 5738 5738 5737 5736 5736 5735 5735 5734 5734 5733 5732 5731 5730 5729 5728 5726 5725 5723 5721 5720 5718 5716 5714 5712 5710 5707 5705 5703 5700 5697 5695 5692 5689 5686 5684 5681 5678 5675 5672 5668 5665 5661 5658 5655 5653 5649 5646 5645 5642 5638 5636 5632 5631 5631 5625 5618 5616 5616 5615 5613 5610 5606 5603 5600 5596 5592 5589 5585 5582 5579 5576
5740 5740 5740 5740 5740 5740 5740 5741 5741 5741 5740 5740 5739 5739 5738 5738 5738 5737 5737 5736 5735 5735 5734 5734 5733 5732 5731 5730 5729 5728 5726 5725 5723 5722 5720 5718 5716 5715 5713 5710 5708 5706 5703 5701 5699 5696 5693 5691 5689 5685 5682 5679 5676 5673 5669 5666 5663 5659 5656 5652 5647 5645 5642 5639 5638 5634 5630 5629 5626 5623 5621 5617 5612 5608 5607 5606 5603 5600 5597 5594 5591 5587 5584 5580 5577 5573 5570 5567
5740 5740 5740 5740 5740 5740 5740 5740 5740 5740 5739 5739 5738 5738 5737 5737 5737 5736 5735 5735 5735 5734 5733 5732 5731 5730 5729 5728 5727 5725 5724 5722 5721 5719 5717 5715 5713 5711 5709 5707 5704 5702 5699 5697 5695 5692 5688 5685 5684 5681 5677 5673 5670 5667 5663 5660 5657 5653 5649 5645 5641 5637 5633 5630 5630 5627 5623 5622 5620 5618 5612 5607 5605 5601 5599 5598 5593 5590 5588 5585 5581 5578 5575 5571 5568 5564 5561 5558
5740 5740 5740 5740 5740 5740 5740 5740 5739 5739 5738 5738 5738 5737 5737 5736 5736 5735 5735 5734 5734 5733 5732 5731 5729 5728 5727 5726 5724 5723 5721 5720 5718 5716 5714 5712 5710 5708 5706 5703 5701 5698 5695 5693 5691 5688 5684 5679 5677 5675 5670 5666 5664 5661 5658 5653 5650 5648 5644 5640 5636 5633 5627 5623 5622 5619 5615 5613 5614 5614 5607 5599 5597 5593 5591 5589 5584 5582 5578 5574 5570 5567 5565 5561 5558 5556 5552 5549
5740 5740 5740 5740 5740 5740 5739 5739 5738 5738 5738 5737 5737 5736 5736 5736 5735 5735 5734 5733 5732 5731 5730 5729 5728 5726 5725 5723 5722 5720 5719 5717 5715 5713 5711 5709 5706 5704 5702 5699 5697 5694 5691 5689 5686 5684 5681 5675 5672 5670 5665 5661 5658 5655 5653 5649 5644 5641 5639 5634 5631 5628 5622 5617 5615 5611 5606 5601 5603 5606 5601 5593 5588 5583 5580 5578 5575 5573 5569 5564 5560 5557 5554 5552 5548 5546 5543 5540
5740 5740 5740 5740 5739 5739 5738 5738 5738 5737 5737 5737 5736 5736 5735 5735 5735 5734 5733 5732 5731 5729 5728 5727 5726 5724 5722 5721 5719 5717 5716 5713 5711 5710 5708 5705 5703 5700 5698 5695 5693 5690 5687 5685 5682 5679 5677 5673 5669 5664 5660 5657 5654 5650 5647 5645 5641 5636 5633 5629 5625 5622 5617 5611 5608 5606 5601 5593 5592 5595 5591 5585 5581 5573 5568 5568 5565 5563 5560 5555 5550 5546 5543 5541 5538 5535 5533 5530
5740 5740 5739 5739 5738 5738 5738 5737 5737 5737 5736 5736 5736 5735 5735 5734 5734 5733 5732 5730 5729 5728 5726 5725 5724 5722 5720 5718 5716 5714 5712 5710 5708 5706 5704 5702 5699 5696 5694 5691 5688 5686 5683 5680 5677 5674 5672 5670 5666 5661 5655 5652 5650 5646 5642 5641 5638 5632 5628 5624 5620 5616 5612 5606 5600 5597 5594 5587 5584 5586 5583 5579 5575 5564 5557 5558 5557 5553 5549 5545 5541 5537 5533 5530 5527 5524 5521 5519
5739 5739 5738 5738 5738 5737 5737 5737 5736 5736 5736 5735 5735 5735 5734 5733 5732 5731 5730 5729 5728 5726 5725 5723 5722 5720 5718 5716 5714 5712 5709 5707 5705 5702 5700 5698 5695 5692 5690 5687 5684 5681 5678 5675 5672 5669 5666 5664 5663 5658 5651 5647 5645 5642 5637 5634 5632 5628 5623 5619 5615 5609 5605 5601 5595 5589 5585 5580 5576 5577 5576 5572 5568 5559 5550 5548 5547 5543 5538 5535 5531 5528 5524 5520 5516 5513 5510 5508
5738 5738 5738 5737 5737 5737 5737 5736 5736 5736 5735 5735 5734 5734 5733 5732 5731 5730 5728 5727 5726 5724 5723 5721 5719 5717 5715 5713 5711 5709 5707 5704 5702 5699 5696 5694 5691 5688 5686 5683 5679 5677 5674 5671 5668 5665 5661 5658 5657 5654 5648 5643 5639 5637 5633 5627 5624 5622 5617 5612 5609 5605 5599 5595 5592 5586 5579 5574 5569 5566 5567 5565 5558 5553 5548 5542 5538 5534 5529 5525 5522 5518 5514 5510 5506 5502 5499 5496
5738 5737 5737 5737 5737 5736 5736 5736 5735 5735 5735 5734 5733 5733 5732 5731 5729 5728 5727 5725 5724 5722 5720 5718 5716 5714 5712 5710 5708 5705 5703 5701 5698 5695 5692 5690 5687 5684 5682 5679 5676 5673 5670 5667 5664 5661 5657 5654 5652 5650 5645 5640 5635 5632 5629 5623 5618 5615 5611 5607 5603 5600 5596 5590 5587 5583 5575 5569 5564 5557 5555 5556 5550 5545 5542 5535 5529 5525 5520 5516 5513 5508 5502 5498 5495 5491 5487 5484
5737 5737 5737 5737 5736 5736 5736 5735 5735 5734 5734 5733 5732 5731 5730 5729 5728 5726 5725 5723 5721 5719 5717 5715 5713 5711 5709 5707 5705 5702 5700 5697 5694 5691 5688 5686 5683 5680 5678 5675 5672 5669 5666 5663 5659 5657 5654 5650 5647 5645 5641 5637 5632 5627 5623 5619 5615 5611 5607 5604 5598 5593 5590 5583 5579 5577 5570 5565 5561 5551 5545 5544 5540 5536 5533 5526 5520 5515 5510 5506 5501 5496 5492 5487 5484 5480 5475 5471
5737 5737 5737 5736 5736 5735 5735 5735 5734 5733 5733 5732 5731 5730 5728 5727 5726 5724 5722 5721 5719 5717 5715 5713 5711 5708 5706 5704 5701 5699 5696 5694 5691 5688 5685 5682 5679 5676 5673 5670 5667 5665 5661 5659 5655 5652 5649 5645 5642 5639 5635 5631 5627 5623 5619 5614 5610 5606 5601 5599 5594 5587 5583 5577 5571 5568 5562 5560 5556 5546 5538 5533 5528 5526 5522 5515 5510 5504 5499 5496 5489 5485 5482 5477 5473 5470 5465 5461
5737 5736 5736 5736 5735 5735 5735 5734 5733 5733 5732 5731 5729 5728 5727 5725 5724 5722 5720 5718 5716 5714 5712 5710 5708 5706 5703 5701 5698 5696 5693 5690 5688 5685 5682 5679 5675 5672 5669 5666 5663 5660 5657 5654 5651 5647 5644 5640 5636 5634 5630 5625 5620 5616 5612 5607 5602 5596 5590 5589 5587 5582 5577 5571 5565 5558 5551 5549 5547 5538 5532 5526 5519 5517 5512 5505 5499 5493 5489 5485 5479 5474 5471 5466 5462 5458 5454 5451
5736 5735 5735 5735 5735 5734 5734 5733 5732 5731 5730 5729 5728 5726 5725 5723 5721 5720 5718 5716 5714 5712 5709 5707 5705 5703 5700 5698 5695 5693 5690 5687 5684 5681 5678 5675 5672 5669 5666 5662 5659 5656 5653 5650 5647 5643 5639 5635 5630 5626 5623 5619 5613 5608 5603 5598 5596 5591 5583 5580 5579 5576 5570 5564 5559 5552 5542 5538 5535 5527 5521 5516 5512 5509 5504 5497 5490 5483 5479 5475 5468 5463 5458 5454 5449 5445 5441 5437
5735 5735 5734 5734 5734 5733 5733 5732 5731 5730 5728 5727 5726 5724 5723 5721 5719 5718 5716 5714 5711 5709 5707 5705 5703 5700 5698 5695 5693 5690 5687 5684 5681 5677 5675 5672 5668 5665 5662 5659 5656 5653 5649 5646 5642 5639 5635 5631 5626 5621 5616 5611 5607 5603 5597 5591 5589 5586 5579 5574 5572 5569 5564 5557 5551 5545 5536 5530 5526 5519 5509 5503 5504 5502 5496 5489 5481 5473 5469 5466 5460 5455 5449 5442 5436 5431 5427 5423
5734 5734 5734 5733 5733 5732 5731 5730 5729 5728 5727 5725 5724 5722 5721 5719 5718 5716 5714 5711 5709 5707 5705 5703 5700 5698 5695 5692 5690 5687 5683 5680 5677 5674 5671 5668 5665 5662 5659 5656 5653 5649 5646 5642 5638 5635 5631 5627 5623 5618 5613 5607 5602 5598 5594 5587 5582 5578 5572 5566 5563 5560 5555 5550 5543 5536 5528 5520 5516 5513 5502 5492 5493 5492 5485 5479 5472 5464 5459 5455 5451 5446 5440 5433 5426 5418 5413 5409
5733 5733 5733 5732 5732 5731 5730 5729 5728 5726 5725 5723 5722 5721 5719 5717 5715 5714 5711 5709 5707 5705 5702 5700 5698 5695 5692 5689 5686 5684 5680 5677 5674 5671 5668 5665 5662 5659 5656 5652 5649 5646 5642 5638 5634 5630 5626 5621 5618 5614 5609 5604 5598 5593 5589 5582 5576 5570 5565 5559 5554 5549 5545 5540 5532 5525 5518 5510 5504 5503 5496 5486 5482 5479 5472 5467 5461 5453 5449 5445 5440 5435 5429 5423 5416 5408 5402 5397
5733 5732 5732 5731 5730 5729 5728 5727 5726 5724 5723 5722 5720 5719 5717 5715 5713 5711 5709 5707 5705 5703 5700 5698 5695 5692 5690 5687 5683 5680 5677 5674 5671 5668 5665 5662 5658 5655 5652 5649 5646 5642 5638 5633 5629 5624 5620 5615 5612 5608 5605 5600 5594 5588 5583 5577 5570 5563 5558 5553 5546 5539 5534 5530 5524 5515 5507 5500 5493 5489 5484 5477 5472 5466 5459 5456 5450 5443 5438 5435 5429 5424 5418 5410 5403 5398 5393 5387
5732 5731 5730 5730 5729 5728 5726 5725 5724 5723 5721 5720 5718 5717 5715 5713 5711 5709 5707 5705 5702 5700 5698 5695 5693 5690 5687 5684 5681 5678 5674 5671 5668 5665 5662 5659 5655 5652 5648 5645 5641 5637 5633 5628 5623 5619 5614 5610 5605 5601 5598 5594 5589 5583 5576 5570 5564 5556 5550 5545 5539 5532 5525 5520 5514 5506 5497 5490 5484 5479 5474 5470 5466 5457 5448 5445 5440 5433 5428 5424 5419 5414 5407 5399 5393 5388 5382 5376
5730 5730 5729 5728 5727 5726 5725 5724 5723 5721 5720 5718 5716 5714 5713 5711 5709 5707 5705 5703 5700 5698 5696 5693 5690 5687 5684 5681 5678 5675 5672 5669 5665 5662 5659 5655 5652 5648 5644 5640 5636 5632 5627 5623 5618 5613 5608 5604 5599 5593 5590 5587 5581 5576 5569 5561 5555 5549 5542 5536 5530 5523 5518 5512 5506 5498 5489 5482 5478 5473 5466 5463 5459 5450 5440 5434 5429 5423 5417 5413 5410 5404 5396 5388 5383 5378 5373 5367
5729 5728 5728 5727 5726 5725 5723 5722 5721 5719 5718 5716 5714 5712 5711 5709 5707 5705 5703 5701 5698 5696 5693 5690 5687 5684 5681 5678 5675 5672 5669 5665 5662 5659 5655 5652 5648 5644 5640 5636 5631 5627 5623 5618 5613 5608 5603 5597 5593 5586 5582 5579 5572 5566 5561 5553 5545 5539 5533 5527 5521 5514 5509 5505 5500 5493 5483 5474 5469 5464 5457 5452 5448 5441 5433 5427 5421 5414 5408 5404 5400 5395 5387 5379 5373 5368 5363 5358
5728 5727 5726 5725 5724 5723 5722 5721 5719 5717 5716 5714 5712 5711 5709 5707 5705 5703 5701 5698 5696 5693 5690 5687 5684 5681 5678 5675 5672 5669 5665 5662 5659 5655 5652 5648 5644 5641 5636 5632 5627 5622 5618 5613 5608 5603 5598 5592 5586 5580 5574 5571 5565 5558 5553 5547 5537 5529 5522 5516 5511 5506 5501 5498 5496 5491 5480 5469 5461 5454 5448 5443 5437 5430 5424 5419 5413 5406 5401 5397 5392 5385 5377 5370 5365 5359 5354 5350